iso_date,epoch_date,Year,Hour,Min,DOY,POS_DOY,Lat,Lon,BP,Ts,Ta,has_bp,has_ts,has_ta,BuoyID,Buoy_Type,Buoy_Owner,Logistics,Hemisphere
2018-08-10T19:00:28Z,1533927629,2018,19,0,222.792,222.792,51.839,-134.028,1020.9,-2.6,-999.0,yes,yes,no,300234063247460,BD2GI,AOML,CCGS_TULLY,North
2018-08-10T19:59:31Z,1533931171,2018,20,0,222.833,222.833,51.842,-134.041,1021.0,-2.61,-999.0,yes,yes,no,300234063247460,BD2GI,AOML,CCGS_TULLY,North
2018-08-10T21:00:00Z,1533934800,2018,21,0,222.875,222.875,51.845,-134.043,1021.3,-2.63,-999.0,yes,yes,no,300234063247460,BD2GI,AOML,CCGS_TULLY,North
2018-08-10T22:00:28Z,1533938429,2018,22,0,222.917,222.917,51.848,-134.047,1021.5,-2.58,-999.0,yes,yes,no,300234063247460,BD2GI,AOML,CCGS_TULLY,North
2018-08-10T22:59:31Z,1533941971,2018,23,0,222.958,222.958,51.849,-134.043,1021.7,-2.56,-999.0,yes,yes,no,300234063247460,BD2GI,AOML,CCGS_TULLY,North
2018-08-11T00:00:00Z,1533945600,2018,0,0,223.0,223.0,51.85,-134.039,1021.5,-2.5,-999.0,yes,yes,no,300234063247460,BD2GI,AOML,CCGS_TULLY,North
2018-08-11T01:00:28Z,1533949229,2018,1,0,223.042,223.042,51.849,-134.032,1021.8,-2.64,-999.0,yes,yes,no,300234063247460,BD2GI,AOML,CCGS_TULLY,North
2018-08-11T01:59:31Z,1533952771,2018,2,0,223.083,223.083,51.844,-134.038,1021.6,-2.67,-999.0,yes,yes,no,300234063247460,BD2GI,AOML,CCGS_TULLY,North
2018-08-11T03:00:00Z,1533956400,2018,3,0,223.125,223.125,51.839,-134.036,1021.2,-2.85,-999.0,yes,yes,no,300234063247460,BD2GI,AOML,CCGS_TULLY,North
2018-08-11T04:00:28Z,1533960029,2018,4,0,223.167,223.167,51.833,-134.031,1021.0,-2.79,-999.0,yes,yes,no,300234063247460,BD2GI,AOML,CCGS_TULLY,North
2018-08-11T04:59:31Z,1533963571,2018,5,0,223.208,223.208,51.82,-134.038,1021.3,-2.79,-999.0,yes,yes,no,300234063247460,BD2GI,AOML,CCGS_TULLY,North
2018-08-11T06:00:00Z,1533967200,2018,6,0,223.25,223.25,51.814,-134.049,1021.5,-3.59,-999.0,yes,yes,no,300234063247460,BD2GI,AOML,CCGS_TULLY,North
2018-08-11T07:00:28Z,1533970829,2018,7,0,223.292,223.292,51.807,-134.06,1021.5,-4.31,-999.0,yes,yes,no,300234063247460,BD2GI,AOML,CCGS_TULLY,North
2018-08-11T07:59:31Z,1533974371,2018,8,0,223.333,223.333,51.811,-134.074,1021.6,-2.83,-999.0,yes,yes,no,300234063247460,BD2GI,AOML,CCGS_TULLY,North
2018-08-11T09:00:00Z,1533978000,2018,9,0,223.375,223.375,51.812,-134.087,1021.5,-1.49,-999.0,yes,yes,no,300234063247460,BD2GI,AOML,CCGS_TULLY,North
2018-08-11T10:00:28Z,1533981629,2018,10,0,223.417,223.417,51.815,-134.094,1021.5,-3.37,-999.0,yes,yes,no,300234063247460,BD2GI,AOML,CCGS_TULLY,North
2018-08-11T10:59:31Z,1533985171,2018,11,0,223.458,223.458,51.82,-134.104,1021.5,-2.96,-999.0,yes,yes,no,300234063247460,BD2GI,AOML,CCGS_TULLY,North
2018-08-11T12:00:00Z,1533988800,2018,12,0,223.5,223.5,51.82,-134.099,1021.6,-4.34,-999.0,yes,yes,no,300234063247460,BD2GI,AOML,CCGS_TULLY,North
2018-08-11T13:00:28Z,1533992429,2018,13,0,223.542,223.542,51.817,-134.092,1021.7,35.85,-999.0,yes,yes,no,300234063247460,BD2GI,AOML,CCGS_TULLY,North
2018-08-11T13:59:31Z,1533995971,2018,14,0,223.583,223.583,51.812,-134.09,1022.0,-4.52,-999.0,yes,yes,no,300234063247460,BD2GI,AOML,CCGS_TULLY,North
2018-08-11T15:00:00Z,1533999600,2018,15,0,223.625,223.625,51.806,-134.087,1022.5,7.11,-999.0,yes,yes,no,300234063247460,BD2GI,AOML,CCGS_TULLY,North
2018-08-11T16:00:28Z,1534003229,2018,16,0,223.667,223.667,51.8,-134.083,1022.7,-4.42,-999.0,yes,yes,no,300234063247460,BD2GI,AOML,CCGS_TULLY,North
2018-08-11T16:59:31Z,1534006771,2018,17,0,223.708,223.708,51.797,-134.078,1023.0,-4.69,-999.0,yes,yes,no,300234063247460,BD2GI,AOML,CCGS_TULLY,North
2018-08-11T18:00:00Z,1534010400,2018,18,0,223.75,223.75,51.791,-134.081,1023.1,-4.54,-999.0,yes,yes,no,300234063247460,BD2GI,AOML,CCGS_TULLY,North
2018-08-11T19:00:28Z,1534014029,2018,19,0,223.792,223.792,51.783,-134.091,1023.3,-4.96,-999.0,yes,yes,no,300234063247460,BD2GI,AOML,CCGS_TULLY,North
2018-08-11T19:59:31Z,1534017571,2018,20,0,223.833,223.833,51.786,-134.099,1023.6,-4.83,-999.0,yes,yes,no,300234063247460,BD2GI,AOML,CCGS_TULLY,North
2018-08-11T21:00:00Z,1534021200,2018,21,0,223.875,223.875,51.789,-134.104,1023.8,-3.08,-999.0,yes,yes,no,300234063247460,BD2GI,AOML,CCGS_TULLY,North
2018-08-11T22:00:28Z,1534024829,2018,22,0,223.917,223.917,51.789,-134.121,1023.9,-3.07,-999.0,yes,yes,no,300234063247460,BD2GI,AOML,CCGS_TULLY,North
2018-08-11T22:59:31Z,1534028371,2018,23,0,223.958,223.958,51.788,-134.124,1023.9,-4.03,-999.0,yes,yes,no,300234063247460,BD2GI,AOML,CCGS_TULLY,North
2018-08-12T00:00:00Z,1534032000,2018,0,0,224.0,224.0,51.787,-134.112,1023.8,-3.83,-999.0,yes,yes,no,300234063247460,BD2GI,AOML,CCGS_TULLY,North
2018-08-12T01:00:28Z,1534035629,2018,1,0,224.042,224.042,51.786,-134.111,1024.0,-2.5,-999.0,yes,yes,no,300234063247460,BD2GI,AOML,CCGS_TULLY,North
2018-08-12T01:59:31Z,1534039171,2018,2,0,224.083,224.083,51.787,-134.111,1024.2,3.46,-999.0,yes,yes,no,300234063247460,BD2GI,AOML,CCGS_TULLY,North
2018-08-12T03:00:00Z,1534042800,2018,3,0,224.125,224.125,51.775,-134.104,1024.3,-4.04,-999.0,yes,yes,no,300234063247460,BD2GI,AOML,CCGS_TULLY,North
2018-08-12T04:00:28Z,1534046429,2018,4,0,224.167,224.167,51.774,-134.102,1024.7,1.16,-999.0,yes,yes,no,300234063247460,BD2GI,AOML,CCGS_TULLY,North
2018-08-12T04:59:31Z,1534049971,2018,5,0,224.208,224.208,51.768,-134.114,1025.0,13.76,-999.0,yes,yes,no,300234063247460,BD2GI,AOML,CCGS_TULLY,North
2018-08-12T06:00:00Z,1534053600,2018,6,0,224.25,224.25,51.765,-134.113,1025.1,-2.28,-999.0,yes,yes,no,300234063247460,BD2GI,AOML,CCGS_TULLY,North
2018-08-12T07:00:28Z,1534057229,2018,7,0,224.292,224.292,51.767,-134.112,1025.3,-1.29,-999.0,yes,yes,no,300234063247460,BD2GI,AOML,CCGS_TULLY,North
2018-08-12T07:59:31Z,1534060771,2018,8,0,224.333,224.333,51.767,-134.126,1025.7,-1.7,-999.0,yes,yes,no,300234063247460,BD2GI,AOML,CCGS_TULLY,North
2018-08-12T09:00:00Z,1534064400,2018,9,0,224.375,224.375,51.769,-134.139,1025.8,-3.4,-999.0,yes,yes,no,300234063247460,BD2GI,AOML,CCGS_TULLY,North
2018-08-12T10:00:28Z,1534068029,2018,10,0,224.417,224.417,51.773,-134.146,1026.4,-2.42,-999.0,yes,yes,no,300234063247460,BD2GI,AOML,CCGS_TULLY,North
2018-08-12T10:59:31Z,1534071571,2018,11,0,224.458,224.458,51.776,-134.151,1026.6,-2.94,-999.0,yes,yes,no,300234063247460,BD2GI,AOML,CCGS_TULLY,North
2018-08-12T12:00:00Z,1534075200,2018,12,0,224.5,224.5,51.774,-134.15,1027.2,-2.4,-999.0,yes,yes,no,300234063247460,BD2GI,AOML,CCGS_TULLY,North
2018-08-12T13:00:28Z,1534078829,2018,13,0,224.542,224.542,51.778,-134.145,1027.2,-4.31,-999.0,yes,yes,no,300234063247460,BD2GI,AOML,CCGS_TULLY,North
2018-08-12T13:59:31Z,1534082371,2018,14,0,224.583,224.583,51.777,-134.139,1027.5,-3.49,-999.0,yes,yes,no,300234063247460,BD2GI,AOML,CCGS_TULLY,North
2018-08-12T15:00:00Z,1534086000,2018,15,0,224.625,224.625,51.774,-134.133,1028.1,1.64,-999.0,yes,yes,no,300234063247460,BD2GI,AOML,CCGS_TULLY,North
2018-08-12T16:00:28Z,1534089629,2018,16,0,224.667,224.667,51.772,-134.128,1028.3,14.91,-999.0,yes,yes,no,300234063247460,BD2GI,AOML,CCGS_TULLY,North
2018-08-12T16:59:31Z,1534093171,2018,17,0,224.708,224.708,51.767,-134.126,1028.5,14.97,-999.0,yes,yes,no,300234063247460,BD2GI,AOML,CCGS_TULLY,North
2018-08-12T18:00:00Z,1534096800,2018,18,0,224.75,224.75,51.758,-134.123,1028.7,-3.77,-999.0,yes,yes,no,300234063247460,BD2GI,AOML,CCGS_TULLY,North
2018-08-12T19:00:28Z,1534100429,2018,19,0,224.792,224.792,51.754,-134.128,1029.0,-3.56,-999.0,yes,yes,no,300234063247460,BD2GI,AOML,CCGS_TULLY,North
2018-08-12T19:59:31Z,1534103971,2018,20,0,224.833,224.833,51.754,-134.136,1029.0,-3.81,-999.0,yes,yes,no,300234063247460,BD2GI,AOML,CCGS_TULLY,North
2018-08-12T21:00:00Z,1534107600,2018,21,0,224.875,224.875,51.752,-134.153,1029.1,-3.11,-999.0,yes,yes,no,300234063247460,BD2GI,AOML,CCGS_TULLY,North
2018-08-12T22:00:28Z,1534111229,2018,22,0,224.917,224.917,51.756,-134.157,1029.1,-2.29,-999.0,yes,yes,no,300234063247460,BD2GI,AOML,CCGS_TULLY,North
2018-08-12T22:59:31Z,1534114771,2018,23,0,224.958,224.958,51.759,-134.161,1029.3,-1.76,-999.0,yes,yes,no,300234063247460,BD2GI,AOML,CCGS_TULLY,North
2018-08-13T00:00:00Z,1534118400,2018,0,0,225.0,225.0,51.762,-134.164,1029.1,-1.64,-999.0,yes,yes,no,300234063247460,BD2GI,AOML,CCGS_TULLY,North
2018-08-13T01:00:28Z,1534122029,2018,1,0,225.042,225.042,51.764,-134.167,1029.1,-3.28,-999.0,yes,yes,no,300234063247460,BD2GI,AOML,CCGS_TULLY,North
2018-08-13T01:59:31Z,1534125571,2018,2,0,225.083,225.083,51.768,-134.161,1029.0,-3.36,-999.0,yes,yes,no,300234063247460,BD2GI,AOML,CCGS_TULLY,North
2018-08-13T03:00:00Z,1534129200,2018,3,0,225.125,225.125,51.764,-134.156,1028.9,35.84,-999.0,yes,yes,no,300234063247460,BD2GI,AOML,CCGS_TULLY,North
2018-08-13T04:00:28Z,1534132829,2018,4,0,225.167,225.167,51.76,-134.152,1029.1,14.25,-999.0,yes,yes,no,300234063247460,BD2GI,AOML,CCGS_TULLY,North
2018-08-13T04:59:31Z,1534136371,2018,5,0,225.208,225.208,51.753,-134.15,1028.8,13.49,-999.0,yes,yes,no,300234063247460,BD2GI,AOML,CCGS_TULLY,North
2018-08-13T06:00:00Z,1534140000,2018,6,0,225.25,225.25,51.749,-134.149,1028.9,1.58,-999.0,yes,yes,no,300234063247460,BD2GI,AOML,CCGS_TULLY,North
2018-08-13T07:00:28Z,1534143629,2018,7,0,225.292,225.292,51.743,-134.15,1028.9,3.78,-999.0,yes,yes,no,300234063247460,BD2GI,AOML,CCGS_TULLY,North
2018-08-13T07:59:31Z,1534147171,2018,8,0,225.333,225.333,51.74,-134.156,1028.6,-4.84,-999.0,yes,yes,no,300234063247460,BD2GI,AOML,CCGS_TULLY,North
2018-08-13T09:00:00Z,1534150800,2018,9,0,225.375,225.375,51.745,-134.173,1028.2,8.4,-999.0,yes,yes,no,300234063247460,BD2GI,AOML,CCGS_TULLY,North
2018-08-13T10:00:28Z,1534154429,2018,10,0,225.417,225.417,51.745,-134.19,1027.9,5.26,-999.0,yes,yes,no,300234063247460,BD2GI,AOML,CCGS_TULLY,North
2018-08-13T10:59:31Z,1534157971,2018,11,0,225.458,225.458,51.751,-134.199,1028.1,-3.85,-999.0,yes,yes,no,300234063247460,BD2GI,AOML,CCGS_TULLY,North
2018-08-13T12:00:00Z,1534161600,2018,12,0,225.5,225.5,51.754,-134.204,1028.2,1.76,-999.0,yes,yes,no,300234063247460,BD2GI,AOML,CCGS_TULLY,North
2018-08-13T13:00:28Z,1534165229,2018,13,0,225.542,225.542,51.761,-134.197,1028.0,-1.34,-999.0,yes,yes,no,300234063247460,BD2GI,AOML,CCGS_TULLY,North
2018-08-13T13:59:31Z,1534168771,2018,14,0,225.583,225.583,51.766,-134.191,1028.0,-4.79,-999.0,yes,yes,no,300234063247460,BD2GI,AOML,CCGS_TULLY,North
2018-08-13T15:00:00Z,1534172400,2018,15,0,225.625,225.625,51.765,-134.178,1028.0,-3.47,-999.0,yes,yes,no,300234063247460,BD2GI,AOML,CCGS_TULLY,North
2018-08-13T16:00:28Z,1534176029,2018,16,0,225.667,225.667,51.763,-134.171,1028.1,7.47,-999.0,yes,yes,no,300234063247460,BD2GI,AOML,CCGS_TULLY,North
2018-08-13T16:59:31Z,1534179571,2018,17,0,225.708,225.708,51.761,-134.163,1027.9,2.31,-999.0,yes,yes,no,300234063247460,BD2GI,AOML,CCGS_TULLY,North
2018-08-13T18:00:00Z,1534183200,2018,18,0,225.75,225.75,51.755,-134.155,1027.6,3.3,-999.0,yes,yes,no,300234063247460,BD2GI,AOML,CCGS_TULLY,North
2018-08-13T19:00:28Z,1534186829,2018,19,0,225.792,225.792,51.75,-134.153,1027.5,2.92,-999.0,yes,yes,no,300234063247460,BD2GI,AOML,CCGS_TULLY,North
2018-08-13T19:59:31Z,1534190371,2018,20,0,225.833,225.833,51.746,-134.155,1027.6,4.09,-999.0,yes,yes,no,300234063247460,BD2GI,AOML,CCGS_TULLY,North
2018-08-13T21:00:00Z,1534194000,2018,21,0,225.875,225.875,51.739,-134.165,1027.2,4.21,-999.0,yes,yes,no,300234063247460,BD2GI,AOML,CCGS_TULLY,North
2018-08-13T22:00:28Z,1534197629,2018,22,0,225.917,225.917,51.738,-134.171,1026.7,4.24,-999.0,yes,yes,no,300234063247460,BD2GI,AOML,CCGS_TULLY,North
2018-08-13T22:59:31Z,1534201171,2018,23,0,225.958,225.958,51.739,-134.187,1026.1,4.2,-999.0,yes,yes,no,300234063247460,BD2GI,AOML,CCGS_TULLY,North
2018-08-14T00:00:00Z,1534204800,2018,0,0,226.0,226.0,51.751,-134.195,1025.7,4.12,-999.0,yes,yes,no,300234063247460,BD2GI,AOML,CCGS_TULLY,North
2018-08-14T01:00:28Z,1534208429,2018,1,0,226.042,226.042,51.761,-134.196,1025.3,7.6,-999.0,yes,yes,no,300234063247460,BD2GI,AOML,CCGS_TULLY,North
2018-08-14T01:59:31Z,1534211971,2018,2,0,226.083,226.083,51.764,-134.191,1025.1,7.18,-999.0,yes,yes,no,300234063247460,BD2GI,AOML,CCGS_TULLY,North
2018-08-14T03:00:00Z,1534215600,2018,3,0,226.125,226.125,51.765,-134.186,1024.8,5.02,-999.0,yes,yes,no,300234063247460,BD2GI,AOML,CCGS_TULLY,North
2018-08-14T04:00:28Z,1534219229,2018,4,0,226.167,226.167,51.764,-134.178,1024.5,3.26,-999.0,yes,yes,no,300234063247460,BD2GI,AOML,CCGS_TULLY,North
2018-08-14T04:59:31Z,1534222771,2018,5,0,226.208,226.208,51.766,-134.171,1024.3,-3.32,-999.0,yes,yes,no,300234063247460,BD2GI,AOML,CCGS_TULLY,North
2018-08-14T06:00:00Z,1534226400,2018,6,0,226.25,226.25,51.768,-134.162,1023.7,-3.5,-999.0,yes,yes,no,300234063247460,BD2GI,AOML,CCGS_TULLY,North
2018-08-14T07:00:28Z,1534230029,2018,7,0,226.292,226.292,51.757,-134.153,1023.1,-3.5,-999.0,yes,yes,no,300234063247460,BD2GI,AOML,CCGS_TULLY,North
2018-08-14T07:59:31Z,1534233571,2018,8,0,226.333,226.333,51.765,-134.148,1022.7,-3.9,-999.0,yes,yes,no,300234063247460,BD2GI,AOML,CCGS_TULLY,North
2018-08-14T09:00:00Z,1534237200,2018,9,0,226.375,226.375,51.756,-134.158,1022.1,-3.79,-999.0,yes,yes,no,300234063247460,BD2GI,AOML,CCGS_TULLY,North
2018-08-14T10:00:28Z,1534240829,2018,10,0,226.417,226.417,51.756,-134.162,1021.7,-3.67,-999.0,yes,yes,no,300234063247460,BD2GI,AOML,CCGS_TULLY,North
2018-08-14T10:59:31Z,1534244371,2018,11,0,226.458,226.458,51.76,-134.168,1021.0,-4.21,-999.0,yes,yes,no,300234063247460,BD2GI,AOML,CCGS_TULLY,North
2018-08-14T12:00:00Z,1534248000,2018,12,0,226.5,226.5,51.761,-134.176,1020.7,-3.48,-999.0,yes,yes,no,300234063247460,BD2GI,AOML,CCGS_TULLY,North
2018-08-14T13:00:28Z,1534251629,2018,13,0,226.542,226.542,51.762,-134.174,1020.5,-3.5,-999.0,yes,yes,no,300234063247460,BD2GI,AOML,CCGS_TULLY,North
2018-08-14T13:59:31Z,1534255171,2018,14,0,226.583,226.583,51.769,-134.172,1020.1,-3.14,-999.0,yes,yes,no,300234063247460,BD2GI,AOML,CCGS_TULLY,North
2018-08-14T15:00:00Z,1534258800,2018,15,0,226.625,226.625,51.775,-134.17,1020.1,-2.56,-999.0,yes,yes,no,300234063247460,BD2GI,AOML,CCGS_TULLY,North
2018-08-14T16:00:28Z,1534262429,2018,16,0,226.667,226.667,51.785,-134.168,1020.0,-3.26,-999.0,yes,yes,no,300234063247460,BD2GI,AOML,CCGS_TULLY,North
2018-08-14T16:59:31Z,1534265971,2018,17,0,226.708,226.708,51.781,-134.165,1019.9,-2.87,-999.0,yes,yes,no,300234063247460,BD2GI,AOML,CCGS_TULLY,North
2018-08-14T18:00:00Z,1534269600,2018,18,0,226.75,226.75,51.782,-134.147,1019.5,-2.72,-999.0,yes,yes,no,300234063247460,BD2GI,AOML,CCGS_TULLY,North
2018-08-14T19:00:28Z,1534273229,2018,19,0,226.792,226.792,51.783,-134.133,1019.5,-2.68,-999.0,yes,yes,no,300234063247460,BD2GI,AOML,CCGS_TULLY,North
2018-08-14T19:59:31Z,1534276771,2018,20,0,226.833,226.833,51.788,-134.125,1019.3,-2.83,-999.0,yes,yes,no,300234063247460,BD2GI,AOML,CCGS_TULLY,North
2018-08-14T21:00:00Z,1534280400,2018,21,0,226.875,226.875,51.785,-134.132,1019.5,-2.56,-999.0,yes,yes,no,300234063247460,BD2GI,AOML,CCGS_TULLY,North
2018-08-14T22:00:28Z,1534284029,2018,22,0,226.917,226.917,51.786,-134.133,1019.6,-2.59,-999.0,yes,yes,no,300234063247460,BD2GI,AOML,CCGS_TULLY,North
2018-08-14T22:59:31Z,1534287571,2018,23,0,226.958,226.958,51.788,-134.152,1019.4,-2.54,-999.0,yes,yes,no,300234063247460,BD2GI,AOML,CCGS_TULLY,North
2018-08-15T00:00:00Z,1534291200,2018,0,0,227.0,227.0,51.788,-134.15,1019.6,-2.47,-999.0,yes,yes,no,300234063247460,BD2GI,AOML,CCGS_TULLY,North
2018-08-15T01:00:28Z,1534294829,2018,1,0,227.042,227.042,51.794,-134.159,1019.6,-2.43,-999.0,yes,yes,no,300234063247460,BD2GI,AOML,CCGS_TULLY,North
2018-08-15T01:59:31Z,1534298371,2018,2,0,227.083,227.083,51.801,-134.169,1019.7,-2.44,-999.0,yes,yes,no,300234063247460,BD2GI,AOML,CCGS_TULLY,North
2018-08-15T03:00:00Z,1534302000,2018,3,0,227.125,227.125,51.809,-134.172,1019.5,-2.7,-999.0,yes,yes,no,300234063247460,BD2GI,AOML,CCGS_TULLY,North
2018-08-15T04:00:28Z,1534305629,2018,4,0,227.167,227.167,51.814,-134.168,1019.6,-2.61,-999.0,yes,yes,no,300234063247460,BD2GI,AOML,CCGS_TULLY,North
2018-08-15T04:59:31Z,1534309171,2018,5,0,227.208,227.208,51.817,-134.162,1019.8,-2.28,-999.0,yes,yes,no,300234063247460,BD2GI,AOML,CCGS_TULLY,North
2018-08-15T06:00:00Z,1534312800,2018,6,0,227.25,227.25,51.818,-134.158,1019.8,-1.54,-999.0,yes,yes,no,300234063247460,BD2GI,AOML,CCGS_TULLY,North
2018-08-15T07:00:28Z,1534316429,2018,7,0,227.292,227.292,51.82,-134.157,1020.1,-2.01,-999.0,yes,yes,no,300234063247460,BD2GI,AOML,CCGS_TULLY,North
2018-08-15T07:59:31Z,1534319971,2018,8,0,227.333,227.333,51.824,-134.155,1019.8,-1.6,-999.0,yes,yes,no,300234063247460,BD2GI,AOML,CCGS_TULLY,North
2018-08-15T09:00:00Z,1534323600,2018,9,0,227.375,227.375,51.828,-134.156,1019.9,-2.56,-999.0,yes,yes,no,300234063247460,BD2GI,AOML,CCGS_TULLY,North
2018-08-15T10:00:28Z,1534327229,2018,10,0,227.417,227.417,51.836,-134.16,1020.1,-2.27,-999.0,yes,yes,no,300234063247460,BD2GI,AOML,CCGS_TULLY,North
2018-08-15T10:59:31Z,1534330771,2018,11,0,227.458,227.458,51.842,-134.16,1020.2,-2.21,-999.0,yes,yes,no,300234063247460,BD2GI,AOML,CCGS_TULLY,North
2018-08-15T12:00:00Z,1534334400,2018,12,0,227.5,227.5,51.841,-134.169,1020.3,-2.17,-999.0,yes,yes,no,300234063247460,BD2GI,AOML,CCGS_TULLY,North
2018-08-15T13:00:28Z,1534338029,2018,13,0,227.542,227.542,51.846,-134.169,1020.5,-2.27,-999.0,yes,yes,no,300234063247460,BD2GI,AOML,CCGS_TULLY,North
2018-08-15T13:59:31Z,1534341571,2018,14,0,227.583,227.583,51.85,-134.175,1020.5,-2.29,-999.0,yes,yes,no,300234063247460,BD2GI,AOML,CCGS_TULLY,North
2018-08-15T15:00:00Z,1534345200,2018,15,0,227.625,227.625,51.858,-134.177,1020.7,-2.18,-999.0,yes,yes,no,300234063247460,BD2GI,AOML,CCGS_TULLY,North
2018-08-15T16:00:28Z,1534348829,2018,16,0,227.667,227.667,51.859,-134.171,1021.1,-2.37,-999.0,yes,yes,no,300234063247460,BD2GI,AOML,CCGS_TULLY,North
2018-08-15T16:59:31Z,1534352371,2018,17,0,227.708,227.708,51.856,-134.171,1021.3,-2.19,-999.0,yes,yes,no,300234063247460,BD2GI,AOML,CCGS_TULLY,North
2018-08-15T18:00:00Z,1534356000,2018,18,0,227.75,227.75,51.856,-134.169,1021.4,-2.24,-999.0,yes,yes,no,300234063247460,BD2GI,AOML,CCGS_TULLY,North
2018-08-15T19:00:28Z,1534359629,2018,19,0,227.792,227.792,51.86,-134.172,1021.6,-2.15,-999.0,yes,yes,no,300234063247460,BD2GI,AOML,CCGS_TULLY,North
2018-08-15T19:59:31Z,1534363171,2018,20,0,227.833,227.833,51.868,-134.171,1021.6,-2.22,-999.0,yes,yes,no,300234063247460,BD2GI,AOML,CCGS_TULLY,North
2018-08-15T21:00:00Z,1534366800,2018,21,0,227.875,227.875,51.87,-134.169,1021.4,-2.17,-999.0,yes,yes,no,300234063247460,BD2GI,AOML,CCGS_TULLY,North
2018-08-15T22:00:28Z,1534370429,2018,22,0,227.917,227.917,51.877,-134.175,1021.5,-2.22,-999.0,yes,yes,no,300234063247460,BD2GI,AOML,CCGS_TULLY,North
2018-08-15T22:59:31Z,1534373971,2018,23,0,227.958,227.958,51.884,-134.181,1021.2,-1.92,-999.0,yes,yes,no,300234063247460,BD2GI,AOML,CCGS_TULLY,North
2018-08-16T00:00:00Z,1534377600,2018,0,0,228.0,228.0,51.885,-134.174,1020.9,-2.02,-999.0,yes,yes,no,300234063247460,BD2GI,AOML,CCGS_TULLY,North
2018-08-16T01:00:28Z,1534381229,2018,1,0,228.042,228.042,51.885,-134.177,1020.9,-1.9,-999.0,yes,yes,no,300234063247460,BD2GI,AOML,CCGS_TULLY,North
2018-08-16T01:59:31Z,1534384771,2018,2,0,228.083,228.083,51.893,-134.18,1020.7,-1.92,-999.0,yes,yes,no,300234063247460,BD2GI,AOML,CCGS_TULLY,North
2018-08-16T03:00:00Z,1534388400,2018,3,0,228.125,228.125,51.902,-134.175,1020.7,-1.86,-999.0,yes,yes,no,300234063247460,BD2GI,AOML,CCGS_TULLY,North
2018-08-16T04:00:28Z,1534392029,2018,4,0,228.167,228.167,51.909,-134.182,1020.7,-1.92,-999.0,yes,yes,no,300234063247460,BD2GI,AOML,CCGS_TULLY,North
2018-08-16T04:59:31Z,1534395571,2018,5,0,228.208,228.208,51.901,-134.179,1021.2,-2.07,-999.0,yes,yes,no,300234063247460,BD2GI,AOML,CCGS_TULLY,North
2018-08-16T06:00:00Z,1534399200,2018,6,0,228.25,228.25,51.903,-134.174,1021.2,-1.93,-999.0,yes,yes,no,300234063247460,BD2GI,AOML,CCGS_TULLY,North
2018-08-16T07:00:28Z,1534402829,2018,7,0,228.292,228.292,51.903,-134.175,1021.1,-2.08,-999.0,yes,yes,no,300234063247460,BD2GI,AOML,CCGS_TULLY,North
2018-08-16T07:59:31Z,1534406371,2018,8,0,228.333,228.333,51.905,-134.175,1021.3,-1.98,-999.0,yes,yes,no,300234063247460,BD2GI,AOML,CCGS_TULLY,North
2018-08-16T09:00:00Z,1534410000,2018,9,0,228.375,228.375,51.909,-134.175,1021.2,-2.13,-999.0,yes,yes,no,300234063247460,BD2GI,AOML,CCGS_TULLY,North
2018-08-16T10:00:28Z,1534413629,2018,10,0,228.417,228.417,51.914,-134.168,1021.1,-2.09,-999.0,yes,yes,no,300234063247460,BD2GI,AOML,CCGS_TULLY,North
2018-08-16T10:59:31Z,1534417171,2018,11,0,228.458,228.458,51.913,-134.167,1021.3,-2.06,-999.0,yes,yes,no,300234063247460,BD2GI,AOML,CCGS_TULLY,North
2018-08-16T12:00:00Z,1534420800,2018,12,0,228.5,228.5,51.922,-134.172,1021.2,-2.11,-999.0,yes,yes,no,300234063247460,BD2GI,AOML,CCGS_TULLY,North
2018-08-16T13:00:28Z,1534424429,2018,13,0,228.542,228.542,51.926,-134.171,1021.2,-2.02,-999.0,yes,yes,no,300234063247460,BD2GI,AOML,CCGS_TULLY,North
2018-08-16T13:59:31Z,1534427971,2018,14,0,228.583,228.583,51.929,-134.171,1021.6,-2.03,-999.0,yes,yes,no,300234063247460,BD2GI,AOML,CCGS_TULLY,North
2018-08-16T15:00:00Z,1534431600,2018,15,0,228.625,228.625,51.932,-134.173,1022.0,-2.05,-999.0,yes,yes,no,300234063247460,BD2GI,AOML,CCGS_TULLY,North
2018-08-16T16:00:28Z,1534435229,2018,16,0,228.667,228.667,51.937,-134.172,1022.3,-1.83,-999.0,yes,yes,no,300234063247460,BD2GI,AOML,CCGS_TULLY,North
2018-08-16T16:59:31Z,1534438771,2018,17,0,228.708,228.708,51.939,-134.17,1022.5,-1.96,-999.0,yes,yes,no,300234063247460,BD2GI,AOML,CCGS_TULLY,North
2018-08-16T18:00:00Z,1534442400,2018,18,0,228.75,228.75,51.939,-134.168,1022.7,-1.63,-999.0,yes,yes,no,300234063247460,BD2GI,AOML,CCGS_TULLY,North
2018-08-16T19:00:28Z,1534446029,2018,19,0,228.792,228.792,51.943,-134.167,1022.9,-1.69,-999.0,yes,yes,no,300234063247460,BD2GI,AOML,CCGS_TULLY,North
2018-08-16T19:59:31Z,1534449571,2018,20,0,228.833,228.833,51.946,-134.164,1023.0,-1.62,-999.0,yes,yes,no,300234063247460,BD2GI,AOML,CCGS_TULLY,North
2018-08-16T21:00:00Z,1534453200,2018,21,0,228.875,228.875,51.95,-134.164,1023.2,-1.53,-999.0,yes,yes,no,300234063247460,BD2GI,AOML,CCGS_TULLY,North
2018-08-16T22:00:28Z,1534456829,2018,22,0,228.917,228.917,51.955,-134.163,1023.2,-1.43,-999.0,yes,yes,no,300234063247460,BD2GI,AOML,CCGS_TULLY,North
2018-08-16T22:59:31Z,1534460371,2018,23,0,228.958,228.958,51.963,-134.159,1023.3,-1.4,-999.0,yes,yes,no,300234063247460,BD2GI,AOML,CCGS_TULLY,North
2018-08-17T00:00:00Z,1534464000,2018,0,0,229.0,229.0,51.97,-134.152,1023.1,-1.08,-999.0,yes,yes,no,300234063247460,BD2GI,AOML,CCGS_TULLY,North
2018-08-17T01:00:28Z,1534467629,2018,1,0,229.042,229.042,51.977,-134.142,1022.9,-1.51,-999.0,yes,yes,no,300234063247460,BD2GI,AOML,CCGS_TULLY,North
2018-08-17T01:59:31Z,1534471171,2018,2,0,229.083,229.083,51.977,-134.132,1022.8,-1.72,-999.0,yes,yes,no,300234063247460,BD2GI,AOML,CCGS_TULLY,North
2018-08-17T03:00:00Z,1534474800,2018,3,0,229.125,229.125,51.978,-134.127,1022.5,-1.5,-999.0,yes,yes,no,300234063247460,BD2GI,AOML,CCGS_TULLY,North
2018-08-17T04:00:28Z,1534478429,2018,4,0,229.167,229.167,51.981,-134.125,1022.6,-1.79,-999.0,yes,yes,no,300234063247460,BD2GI,AOML,CCGS_TULLY,North
2018-08-17T04:59:31Z,1534481971,2018,5,0,229.208,229.208,51.986,-134.123,1023.0,-1.59,-999.0,yes,yes,no,300234063247460,BD2GI,AOML,CCGS_TULLY,North
2018-08-17T06:00:00Z,1534485600,2018,6,0,229.25,229.25,51.992,-134.117,1023.1,-1.63,-999.0,yes,yes,no,300234063247460,BD2GI,AOML,CCGS_TULLY,North
2018-08-17T07:00:28Z,1534489229,2018,7,0,229.292,229.292,51.991,-134.109,1022.9,-1.61,-999.0,yes,yes,no,300234063247460,BD2GI,AOML,CCGS_TULLY,North
2018-08-17T07:59:31Z,1534492771,2018,8,0,229.333,229.333,51.995,-134.101,1022.7,-1.78,-999.0,yes,yes,no,300234063247460,BD2GI,AOML,CCGS_TULLY,North
2018-08-17T09:00:00Z,1534496400,2018,9,0,229.375,229.375,52.0,-134.095,1022.8,-1.48,-999.0,yes,yes,no,300234063247460,BD2GI,AOML,CCGS_TULLY,North
2018-08-17T10:00:28Z,1534500029,2018,10,0,229.417,229.417,52.001,-134.087,1023.0,-1.77,-999.0,yes,yes,no,300234063247460,BD2GI,AOML,CCGS_TULLY,North
2018-08-17T10:59:31Z,1534503571,2018,11,0,229.458,229.458,52.007,-134.073,1023.0,-1.6,-999.0,yes,yes,no,300234063247460,BD2GI,AOML,CCGS_TULLY,North